Вернуться в каталог

KUIPER-00451

АктивенСвязьLEO
NORAD 68945·PAYLOAD·🇺🇸 United States

Запущен Apr 30, 2026 с Guiana Space Centre

Loading…

Ближайшие Пролёты (ближайшие 24 часа)

TLE

СвежийSource: CelesTrak SupGP

Эпоха: Sep 14, 2026, 18:57 UTC

1 68945C 26098AC  26257.78971065  .00008323  00000+0  10898-2 0  2572
2 68945  51.9002  26.9341 0000557 119.2686  37.8825 14.79912433    13

Отслеживайте KUIPER-00451 в реальном времени с AllMySat

Download on the App Store